When you browse on this site, cookies collect data to enhance your experience and personalize the content and advertising you see.
Visit our Privacy Policy to learn more. By continuing to use the site, you agree to this use of cookies and data.
  • In United Kingdom
  • List of Countries
  • For 7 days
  • Water Temperature
  • Satellite Maps
  • Weather Map
  • Weather Widgets
  • user-avatar
    Login

    Hourly Weather Raj

    Today, 10 December, Monday

    Time Temperature Precipitation Wind Pressure Humidity
    00:00 +5°C° 0.2 mm 5 mps 737 mmHg 85%
    01:00 +3°C° 0 mm 5 mps 736 mmHg 86%
    02:00 +3°C° 0.3 mm 5 mps 737 mmHg 85%
    03:00 +3°C° 0.3 mm 6 mps 737 mmHg 84%
    04:00 +3°C° 0.3 mm 6 mps 737 mmHg 82%
    05:00 +3°C° 0.4 mm 7 mps 738 mmHg 80%
    06:00 +3°C° 0.4 mm 7 mps 738 mmHg 78%
    07:00 +2°C° 0.4 mm 8 mps 739 mmHg 76%
    08:00 +2°C° 0.2 mm 8 mps 740 mmHg 75%
    09:00 +2°C° 0.2 mm 8 mps 740 mmHg 73%
    10:00 +1°C° 0.2 mm 8 mps 741 mmHg 71%
    11:00 +2°C° 0 mm 8 mps 741 mmHg 70%
    12:00 +2°C° 0 mm 8 mps 742 mmHg 68%
    13:00 +3°C° 0 mm 7 mps 742 mmHg 66%
    14:00 +3°C° 0.1 mm 7 mps 743 mmHg 67%
    15:00 +2°C° 0.1 mm 6 mps 743 mmHg 69%
    16:00 +2°C° 0.1 mm 5 mps 743 mmHg 70%
    17:00 +2°C° 0 mm 5 mps 743 mmHg 72%
    18:00 +1°C° 0 mm 5 mps 744 mmHg 73%
    19:00 +1°C° 0 mm 5 mps 744 mmHg 75%
    20:00 0°C° 0 mm 5 mps 744 mmHg 77%
    21:00 0°C° 0 mm 5 mps 744 mmHg 78%
    22:00 0°C° 0 mm 5 mps 744 mmHg 80%
    23:00 -1°C° 0 mm 5 mps 744 mmHg 82%

    Tomorrow, 11 December, Tuesday

    Time Temperature Precipitation Wind Pressure Humidity
    00:00 -1°C° 0 mm 4 mps 744 mmHg 84%
    01:00 -1°C° 0 mm 4 mps 744 mmHg 86%
    02:00 -1°C° 0 mm 4 mps 744 mmHg 87%
    03:00 -1°C° 0 mm 4 mps 744 mmHg 88%
    04:00 -1°C° 0 mm 4 mps 744 mmHg 90%
    05:00 -1°C° 0.2 mm 4 mps 744 mmHg 90%
    06:00 -1°C° 0.2 mm 4 mps 744 mmHg 90%
    07:00 -1°C° 0.2 mm 4 mps 744 mmHg 90%
    08:00 -1°C° 0.3 mm 4 mps 744 mmHg 89%
    09:00 +1°C° 0.3 mm 3 mps 745 mmHg 88%
    10:00 +1°C° 0.3 mm 3 mps 745 mmHg 88%
    11:00 +1°C° 0.2 mm 3 mps 745 mmHg 88%
    12:00 +2°C° 0.2 mm 2 mps 745 mmHg 88%
    13:00 +3°C° 0.2 mm 2 mps 745 mmHg 88%
    14:00 +2°C° 0.2 mm 2 mps 746 mmHg 90%
    15:00 +3°C° 0.2 mm 1 mps 746 mmHg 91%
    16:00 +3°C° 0.2 mm 1 mps 746 mmHg 92%
    17:00 +3°C° 0.1 mm 1 mps 747 mmHg 93%
    18:00 +2°C° 0.1 mm 2 mps 747 mmHg 93%
    19:00 +2°C° 0.1 mm 2 mps 747 mmHg 93%
    20:00 +1°C° 0 mm 2 mps 748 mmHg 93%
    21:00 +1°C° 0 mm 2 mps 748 mmHg 93%
    22:00 +1°C° 0 mm 2 mps 749 mmHg 93%
    23:00 +1°C° 0 mm 2 mps 749 mmHg 93%

    Day after tomorrow, 12 December, Wednesday

    Time Temperature Precipitation Wind Pressure Humidity
    00:00 0°C° 0 mm 3 mps 749 mmHg 93%
    01:00 -1°C° 0 mm 3 mps 750 mmHg 93%
    02:00 -1°C° 0 mm 3 mps 750 mmHg 93%
    03:00 -1°C° 0 mm 3 mps 750 mmHg 93%
    04:00 -2°C° 0 mm 3 mps 751 mmHg 93%
    05:00 -2°C° 0 mm 3 mps 751 mmHg 93%
    06:00 -2°C° 0 mm 3 mps 751 mmHg 92%
    07:00 -2°C° 0 mm 3 mps 752 mmHg 92%
    08:00 -2°C° 0 mm 3 mps 752 mmHg 90%
    09:00 -1°C° 0 mm 3 mps 753 mmHg 88%
    10:00 -1°C° 0 mm 3 mps 753 mmHg 85%
    11:00 0°C° 0 mm 3 mps 753 mmHg 84%
    12:00 0°C° 0 mm 3 mps 753 mmHg 83%
    13:00 0°C° 0 mm 3 mps 754 mmHg 82%
    14:00 +1°C° 0 mm 2 mps 754 mmHg 84%
    15:00 -1°C° 0 mm 2 mps 754 mmHg 87%
    16:00 -2°C° 0 mm 2 mps 754 mmHg 89%
    17:00 -2°C° 0 mm 2 mps 754 mmHg 89%
    18:00 -2°C° 0 mm 2 mps 754 mmHg 90%
    19:00 -2°C° 0 mm 2 mps 755 mmHg 90%
    20:00 -2°C° 0 mm 2 mps 755 mmHg 90%
    21:00 -3°C° 0 mm 2 mps 755 mmHg 90%
    22:00 -3°C° 0 mm 2 mps 755 mmHg 90%
    23:00 -3°C° 0 mm 2 mps 755 mmHg 90%

    13 December, Thursday

    Time Temperature Precipitation Wind Pressure Humidity
    00:00 -3°C° 0 mm 2 mps 755 mmHg 91%
    01:00 -1°C° 0 mm 1 mps 755 mmHg 91%
    02:00 -3°C° 0 mm 2 mps 755 mmHg 91%
    03:00 -2°C° 0 mm 2 mps 755 mmHg 92%
    04:00 -2°C° 0 mm 2 mps 755 mmHg 92%
    05:00 -2°C° 0 mm 2 mps 755 mmHg 92%
    06:00 -2°C° 0 mm 2 mps 755 mmHg 92%
    07:00 -2°C° 0 mm 2 mps 755 mmHg 93%
    08:00 -2°C° 0 mm 2 mps 755 mmHg 91%
    09:00 -1°C° 0 mm 2 mps 755 mmHg 90%
    10:00 -1°C° 0 mm 2 mps 755 mmHg 88%
    11:00 -1°C° 0 mm 2 mps 755 mmHg 87%
    12:00 -1°C° 0 mm 2 mps 754 mmHg 85%
    13:00 +1°C° 0 mm 2 mps 754 mmHg 83%
    14:00 -1°C° 0 mm 2 mps 754 mmHg 85%
    15:00 -1°C° 0 mm 2 mps 754 mmHg 86%
    16:00 -1°C° 0 mm 2 mps 754 mmHg 88%
    17:00 -1°C° 0 mm 2 mps 754 mmHg 88%
    18:00 -1°C° 0 mm 2 mps 754 mmHg 88%
    19:00 -1°C° 0 mm 2 mps 755 mmHg 89%
    20:00 -2°C° 0 mm 2 mps 755 mmHg 89%
    21:00 0°C° 0 mm 1 mps 755 mmHg 90%
    22:00 0°C° 0 mm 1 mps 755 mmHg 90%
    23:00 0°C° 0 mm 1 mps 756 mmHg 90%

    14 December, Friday

    Time Temperature Precipitation Wind Pressure Humidity
    00:00 0°C° 0 mm 1 mps 756 mmHg 90%
    01:00 0°C° 0 mm 1 mps 756 mmHg 90%
    02:00 0°C° 0 mm 1 mps 756 mmHg 91%
    03:00 -1°C° 0 mm 1 mps 756 mmHg 91%
    04:00 -1°C° 0 mm 1 mps 756 mmHg 92%
    05:00 -1°C° 0 mm 1 mps 757 mmHg 91%
    06:00 0°C° 0 mm 1 mps 757 mmHg 91%
    07:00 0°C° 0 mm 1 mps 757 mmHg 90%
    08:00 0°C° 0 mm 1 mps 758 mmHg 89%
    09:00 0°C° 0 mm 1 mps 758 mmHg 88%
    10:00 +1°C° 0 mm 1 mps 759 mmHg 86%
    11:00 +1°C° 0 mm 1 mps 759 mmHg 85%
    12:00 +1°C° 0 mm 1 mps 759 mmHg 84%
    13:00 +2°C° 0 mm 1 mps 759 mmHg 83%
    14:00 -1°C° 0 mm 2 mps 760 mmHg 86%
    15:00 -1°C° 0 mm 2 mps 760 mmHg 88%
    16:00 -2°C° 0 mm 2 mps 760 mmHg 90%
    17:00 -2°C° 0 mm 2 mps 761 mmHg 90%
    18:00 -2°C° 0 mm 2 mps 761 mmHg 90%
    19:00 -2°C° 0 mm 2 mps 761 mmHg 90%
    20:00 -2°C° 0 mm 2 mps 761 mmHg 90%
    21:00 -2°C° 0 mm 2 mps 762 mmHg 89%
    22:00 -2°C° 0 mm 2 mps 762 mmHg 89%
    23:00 -2°C° 0 mm 2 mps 762 mmHg 88%

    15 December, Saturday

    Time Temperature Precipitation Wind Pressure Humidity
    00:00 -1°C° 0 mm 2 mps 762 mmHg 87%
    01:00 -1°C° 0 mm 2 mps 762 mmHg 86%
    02:00 -1°C° 0 mm 2 mps 763 mmHg 86%
    03:00 -1°C° 0 mm 2 mps 763 mmHg 85%
    04:00 -1°C° 0 mm 2 mps 763 mmHg 85%
    05:00 -1°C° 0 mm 2 mps 763 mmHg 85%
    06:00 -2°C° 0 mm 2 mps 763 mmHg 85%
    07:00 -2°C° 0 mm 2 mps 764 mmHg 85%
    08:00 -1°C° 0 mm 2 mps 764 mmHg 84%
    09:00 -1°C° 0 mm 3 mps 764 mmHg 83%
    10:00 -1°C° 0 mm 3 mps 764 mmHg 81%
    11:00 -1°C° 0 mm 3 mps 764 mmHg 80%
    12:00 -1°C° 0 mm 3 mps 764 mmHg 78%
    13:00 0°C° 0 mm 3 mps 764 mmHg 77%
    14:00 -1°C° 0 mm 3 mps 764 mmHg 79%
    15:00 -1°C° 0 mm 3 mps 765 mmHg 81%
    16:00 -2°C° 0 mm 2 mps 765 mmHg 84%
    17:00 -2°C° 0 mm 2 mps 765 mmHg 84%
    18:00 -3°C° 0 mm 2 mps 765 mmHg 85%
    19:00 -4°C° 0 mm 3 mps 765 mmHg 85%
    20:00 -4°C° 0 mm 3 mps 766 mmHg 86%
    21:00 -4°C° 0 mm 3 mps 766 mmHg 86%
    22:00 -4°C° 0 mm 3 mps 766 mmHg 86%
    23:00 -4°C° 0 mm 3 mps 766 mmHg 87%
    Show more